TITAN 3C TRANSTAGE DEB, 1653

Orbit data source: Space-Track

TITAN 3C TRANSTAGE DEB, 1653 is space debris in LEO originally from a launch on Fri, 15 Oct 1965 UTC launched from the Air Force Eastern Test Range (AFETR). Debris objects in space refer to the collection of defunct objects orbiting the Earth. Examples of debris include non-operational satellites, rocket bodies, and fragments generated from explosions, collisions, or faulty payload assembly.

Loading next visibility...
Identifier
1653, 1965-082Q
Orbit
LEO
Country
Flag of USUS
Related business
Manufacturer
Unknown
Mission
Spacecraft
Bus & Motor
Unknown
Mass
Unknown
Launch date (UTC)
1965-10-15 (61 years ago)
Launch vehicle
Unknown
Launch site
Air Force Eastern Test Range (AFETR)
Object type
Payload
Rocket body
Debris
Shape & HBR
Unknown shape, 0.6 m
Radar Cross Section
Medium (>0.1 m² and <1 m²)

Expand to show TLE details & history
Last TLE update: 21 hours ago

TLE from 21 hours ago
0 TITAN 3C TRANSTAGE DEB
1 01653U 65082Q   26129.04850408  .00000346  00000-0  56600-4 0  9999
2 01653  32.1200  36.9034 0040502  61.1265 299.3437 14.64322313205768
Epoch: 2026-05-09T01:09Z
TLE epoch observation values (Epoch: 2026-05-09T01:09:50.752Z)
Latitude
0.00001°
Longitude
152.57043°
Altitude
663.984 km
Speed
7.535 km/s
True Right ascension
02h 27m 36s
True Declination
0° 00' 00"
Sunlit
Object was in daylight at epoch
Visualization orbit readout
Latitude
Unknown
Longitude
Unknown
Altitude
Unknown
Speed
Unknown
Apparent Right ascension
Unknown
Apparent Declination
Unknown
Sunlit
N/A
Visualization observer readout
Local Sidereal Time
06:38:18
Azimuth
Unknown
Elevation
Unknown
Doppler factor
Unknown
Orbital elements
Apogee altitude
711.45 km
Perigee altitude
654.254 km
Semi-major axis
7,060.989 km
Eccentricity
0.00405
Inclination
32.12°
RAAN
36.9034°
Arg. of periapsis
61.1265°
True anomaly
298.93813°
Mean anomaly
299.3437°
Eccentric anomaly
299.14101°
Mean motion
3.65801 °/min
Orbital period
98.41 mins
BSTAR
0.0000566

Documentation

Showing up to 5 results
|